Printer-friendly version

IAU Minor Planet Center

Minor Planet Center

MPEC 2006-C52 : 2006 CU10

The following Minor Planet Electronic Circular may be linked-to from your own Web pages, but must not otherwise be redistributed electronically.


Read MPEC 2006-C51 Read MPEC 2006-C53


M.P.E.C. 2006-C52                                Issued 2006 Feb.  9, 16:29 UT

     The Minor Planet Electronic Circulars contain information on unusual
         minor planets and routine data on comets.  They are published
   on behalf of Commission 20 of the International Astronomical Union by the
          Minor Planet Center, Smithsonian Astrophysical Observatory,
                          Cambridge, MA 02138, U.S.A.

                  Supported in part by the Brinson Foundation
                  Supported in part by the TABASGO Foundation
             Prepared using the Tamkin Foundation Computer Network

                              MPC@CFA.HARVARD.EDU
          URL http://cfa-www.harvard.edu/iau/mpc.html  ISSN 1523-6714

                                   2006 CU10

Observations:
     K06C10U*tC2006 02 07.34159 10 11 28.47 +05 46 13.7          21.4 V EC052291
     K06C10U tC2006 02 07.34542 10 11 28.01 +05 46 25.5          21.4 V EC052291
     K06C10U tC2006 02 07.35004 10 11 27.48 +05 46 40.6          21.1 V EC052291
     K06C10U  C2006 02 07.41392 10 11 20.32 +05 49 47.3          21.6 V EC052291
     K06C10U  C2006 02 07.41770 10 11 19.91 +05 49 57.8          21.6 V EC052291
     K06C10U HC2006 02 07.42152 10 11 19.55 +05 50 09.6                 EC052291
     K06C10U  C2006 02 08.34227 10 09 38.51 +06 35 51.2          20.8 V EC052291
     K06C10U  C2006 02 08.34639 10 09 38.03 +06 36 05.1          21.2 V EC052291
     K06C10U  C2006 02 08.35026 10 09 37.60 +06 36 16.3          21.1 V EC052291

Observer details:
291 LPL/Spacewatch II.  Observer A. S. Descour.  1.8-m f/2.7 reflector + CCD.

Orbital elements:
2006 CU10                                                Earth MOID = 0.0605 AU
Epoch 2006 Mar. 6.0 TT = JDT 2453800.5                  MPC
M 299.58896              (2000.0)            P               Q
n   0.44999024     Peri.  121.56702     +0.18181325     +0.86556975
a   1.6865556      Node   146.37383     -0.90207770     -0.04206673
e   0.4567289      Incl.   57.41771     +0.39140741     -0.49901844
P   2.19           H   19.9           G   0.15           U   9
Residuals in seconds of arc
060207 291  0.4+  0.8-    060207 291  0.5-  0.2+    060208 291  0.0   0.8-
060207 291  0.1-  0.3-    060207 291  0.3-  0.4-    060208 291  0.1-  0.6+
060207 291  0.3-  1.2+    060207 291  0.7+  0.1+    060208 291  0.2+  0.2+

Ephemeris:
2006 CU10                a,e,i = 1.69, 0.46, 57                  q = 0.9163
Date    TT    R. A. (2000) Decl.     Delta      r     Elong.  Phase     V
2006 02 04    10 17.15   +03 10.1    0.862    1.816   158.8    11.3    21.6
2006 02 14    09 58.16   +11 38.9    0.773    1.760   177.4     1.5    20.8
2006 02 24    09 33.79   +21 36.0    0.731    1.701   162.3    10.2    21.0
2006 03 06    09 06.55   +31 23.0    0.739    1.640   142.2    21.7    21.4
2006 03 16    08 40.40   +39 30.8    0.786    1.577   124.2    31.4    21.7
2006 03 26    08 18.97   +45 35.9    0.858    1.512   109.0    38.6    22.0

Timothy B. Spahr             (C) Copyright 2006 MPC           M.P.E.C. 2006-C52

Read MPEC 2006-C51 Read MPEC 2006-C53


Our Web policy. Index to the CBAT/MPC/ICQ pages.


Valid HTML 4.01!